Regional Weather Roundup
Issued by NWS

Home | Current Version | Previous Version | Text Only | Print | Product List | Glossary On
Versions: 1 2 3 4 5 6 7 8 9 10 11 12 13 14 15 16 17 18 19 20 21 22 23 24 25 26 27 28 29 30 31 32 33 34 35 36 37 38 39 40 41 42 43 44 45 46 47 48 49 50
000
ASUS43 KMPX 171101
RWRMN
WEATHER ROUNDUP FOR MINNESOTA
NATIONAL WEATHER SERVICE TWIN CITIES/CHANHASSEN MN
500 AM CST FRI NOV 17 2017


NOTE: "FAIR" INDICATES FEW OR NO CLOUDS BELOW 12,000 FEET WITH NO
SIGNIFICANT WEATHER AND/OR OBSTRUCTIONS TO VISIBILITY. N/A MEANS
CURRENT SKY AND/OR WEATHER CONDITIONS ARE NOT AVAILABLE.

MNZ060>063-068>070-171200-
   Twin Cities Metro

CITY           SKY/WX    TMP DP  RH WIND       PRES   REMARKS
TWIN CITIES    CLOUDY    36  30  79 SE18G29   29.76F
ST PAUL        CLOUDY    35  29  78 SE21G33   29.76F WCI  24
CRYSTAL        CLOUDY    36  27  69 SE20G28   29.72F
BLAINE         CLOUDY    37  30  75 S18G30    29.73F
LAKEVILLE      CLOUDY    34  30  86 SE13G22   29.75F WCI  25
EDEN PRAIRIE   CLOUDY    37  29  72 SE15G24   29.73F
SOUTH ST PAUL  CLOUDY    36  29  76 SE15      29.76F
LAKE ELMO      MOCLDY    34  30  86 SE17G26   29.78F WCI  23
$$
MNZ001>005-007-008-013>017-022>024-027-028-171200-
   Northwest Minnesota

CITY           SKY/WX    TMP DP  RH WIND       PRES   REMARKS
BEMIDJI        MOCLDY    30  26  84 S8        29.66S WCI  23
HALLOCK        CLOUDY    34  30  86 S13       29.57R WCI  25
ROSEAU         MOCLDY    34  28  80 S18G25    29.54R WCI  23
WARROAD        PTCLDY    32  28  86 S15G24    29.53F WCI  22
CROOKSTON      CLOUDY    34  28  80 S10       29.60R WCI  26
FOSSTON        CLOUDY    30  27  86 SE14G22   29.58F WCI  20
DETROIT LAKES  CLOUDY    32  30  93 SE8       29.63F WCI  25
MOORHEAD       CLOUDY    34  28  80 SE17      29.60F WCI  23
PARK RAPIDS    CLOUDY    30  26  85 SE8       29.65F WCI  22
MAHNOMEN       PTSUNNY   33  28  81 SE12      29.60F WCI  24
$$
MNZ006-009>011-018-025>026-171200-
   North Central Minnesota

CITY           SKY/WX    TMP DP  RH WIND       PRES   REMARKS
BAUDETTE       CLOUDY    32  26  78 S14       29.61F WCI  22
FLAG ISLAND    MOCLDY    30  28  93 S24       29.54F WCI  16
INTL FALLS     MIX PCPN  32  24  72 S9G21     29.67S WCI  24
WASKISH        CLOUDY    32  27  80 S12G21    29.65F WCI  23
BIG FORK       CLOUDY    32  27  80 S12       29.68R WCI  23
LONGVILLE      CLOUDY    32  27  80 S9        29.68F WCI  24
GRAND RAPIDS   CLOUDY    31  27  85 S14       29.70F WCI  21
CRANE LAKE     CLOUDY    30  27  86 SE7       29.72F WCI  23
ORR            CLOUDY    30  23  74 S14       29.70R WCI  20
COOK           CLOUDY    30  27  86 S12G20    29.73R WCI  21
WALKER         CLOUDY    32  26  81 S8        29.68R WCI  24
$$
MNZ012-019>021-037-171200-
   Northeast Minnesota

CITY           SKY/WX    TMP DP  RH WIND       PRES   REMARKS
DULUTH         CLOUDY    31  25  78 S17       29.75F WCI  19
ELY            PTCLDY    30  27  86 S12       29.74R WCI  21
HIBBING        CLOUDY    30  25  81 S8        29.73F WCI  22
EVELETH        CLOUDY    30  23  74 S10G16    29.76R WCI  21
DULUTH HARBOR  CLOUDY    34  28  80 S6        29.80F WCI  29
TWO HARBORS    CLOUDY    36  28  75 SE8       29.77F
GRAND MARAIS     N/A     35  32  88 S13       29.89F WCI  26
G MARAIS ARPRT LGT SNOW  27  25  93 SE8G17    29.82F WCI  18
$$
MNZ029>031-032-039>041-046>048-054>057-064-171200-
   West Central Minnesota

CITY           SKY/WX    TMP DP  RH WIND       PRES   REMARKS
FERGUS FALLS   CLOUDY    34  28  80 S14       29.65S WCI  24
WHEATON        CLOUDY    32  27  80 SE7       29.65R WCI  26
MORRIS         CLOUDY    34  28  80 SE16      29.62R WCI  23
ALEXANDRIA     CLOUDY    34  28  79 S14       29.65F WCI  25
ELBOW LAKE     FAIR      33  29  84 SE15      29.64R FOG     WCI  23
WADENA         CLOUDY    32  27  80 SE9       29.64F WCI  24
GLENWOOD       CLOUDY    34  28  80 SE13      29.66R WCI  25
APPLETON       CLOUDY    37  28  70 SE10      29.62R
BENSON         CLOUDY    36  28  75 S13       29.66R
ORTONVILLE     CLOUDY    36  28  75 MISG      29.61R
MADISON        CLOUDY    37  30  75 SE9       29.61R
WILLMAR        FAIR      36  30  80 SE14      29.67F
$$
MNZ033>034-036-042>043-049>051-058-059-171200-
   Central Minnesota

CITY           SKY/WX    TMP DP  RH WIND       PRES   REMARKS
ST CLOUD       CLOUDY    35  29  78 SE13      29.71F WCI  26
SAUK CENTRE    FAIR      32  28  86 SE13      29.66F WCI  23
PAYNESVILLE    CLOUDY    35  31  87 SE16G22   29.67F WCI  24
AITKIN         PTCLDY    32  27  80 S12G18    29.70F WCI  23
PINE RIVER     PTCLDY    30  27  86 S8        29.72F WCI  23
BRAINERD       CLOUDY    33  27  78 SE10      29.68F WCI  25
STAPLES        CLOUDY    30  27  86 SE6       29.67S WCI  24
LONG PRAIRIE   FAIR      32  28  86 SE10      29.68S WCI  24
LITTLE FALLS   CLOUDY    34  25  69 SE8       29.70F WCI  27
LITCHFIELD     CLOUDY    37  30  75 SE12G20   29.69S
BUFFALO        CLOUDY    37  29  74 SE14G20   29.73S
MAPLE LAKE     CLOUDY    37  31  79 S9        29.73R
HUTCHINSON     CLOUDY    36  31  82 SE9G17    29.70S
$$
MNZ037-044-045-052-053-171200-
   East Central Minnesota

CITY           SKY/WX    TMP DP  RH WIND       PRES   REMARKS
PRINCETON      CLOUDY    37  30  75 SE10G21   29.73F
MORA           CLOUDY    34  28  80 S12       29.76F WCI  25
CAMBRIDGE      CLOUDY    36  28  75 SE14G23   29.74F
RUSH CITY      CLOUDY    33  28  80 S16       29.76F WCI  23
MOOSE LAKE     CLOUDY    34  28  80 S8        29.74F WCI  27
HINCKLEY       PTSUNNY   34  30  86 SE12      29.76F WCI  25
CLOQUET        CLOUDY    32  25  74 SE8       29.75F WCI  25
MCGREGOR       MOCLDY    32  28  86 SE10G20   29.73F WCI  24
$$
MNZ071>073-080-081-089-090-097-098-171200-
   Southwest Minnesota

CITY           SKY/WX    TMP DP  RH WIND       PRES   REMARKS
MONTEVIDEO     CLOUDY    36  30  80 S9        29.63R
GRANITE FALLS  CLOUDY    38  32  77 SE13      29.65S
CANBY          CLOUDY    40  32  71 E6        29.59F
MARSHALL       CLOUDY    38  30  73 SE12      29.62R
REDWOOD FALLS  CLOUDY    37  29  72 SE18      29.66S
OLIVIA         CLOUDY    36  32  87 SE16G22   29.66S
PIPESTONE      CLOUDY    37  30  75 S17       29.57S
WINDOM           N/A     39  25  56 S17G29    29.62S
WORTHINGTON    CLOUDY    37  30  75 S24G30    29.60F
JACKSON        CLOUDY    37  30  75 S24G32    29.66F
SLAYTON        CLOUDY    35  31  85 S20       29.60F WCI  24
$$
MNZ065>067-074>077-082>085-091>093-171200-
   South Central Minnesota

CITY           SKY/WX    TMP DP  RH WIND       PRES   REMARKS
MANKATO        CLOUDY    36  29  75 S24G33    29.70F
NEW ULM        CLOUDY    37  28  70 S10G24    29.69R
ST JAMES       CLOUDY    37  30  75 SE23G29   29.68F
FAIRMONT       CLOUDY    36  30  79 S22G31    29.69F
GLENCOE        CLOUDY    38  31  78 SE13G22   29.70F
FARIBAULT      CLOUDY    36  30  80 SE18      29.75F
OWATONNA       CLOUDY    34  30  86 SE24G30   29.76F WCI  21
WASECA         CLOUDY    34  30  86 SE21G31   29.74F WCI  22
ALBERT LEA     CLOUDY    34  28  80 S20G32    29.76F WCI  22
$$
MNZ078>079-086>088-094>096-171200-
   Southeast Minnesota

CITY           SKY/WX    TMP DP  RH WIND       PRES   REMARKS
ROCHESTER      CLOUDY    33  29  85 S23G35    29.80F WCI  21
RED WING       CLOUDY    36  27  69 SE16G22   29.81F
STANTON        CLOUDY    37  30  77 SE15      29.76F
DODGE CENTER   CLOUDY    32  28  86 SE22G31   29.78F WCI  19
WINONA         CLOUDY    36  30  80 SE12      29.91F
AUSTIN         CLOUDY    34  28  80 S14G21    29.80F WCI  24
PRESTON        CLOUDY    32  28  86 SE20G25   29.87F WCI  20
$$
ABBREVIATIONS USED IN REMARKS
   TC - TEMPERATURES IN CELSIUS
  WCI - WIND CHILL INDEX
   HX - HEAT INDEX
  VSB - VISIBILITY
$$




USA.gov is the U.S. government's official web portal to all federal, state and local government web resources and services.